| time (UTC) | temp F | wind direction | speed knots | gust knots | rain 1hr in | rain 24hr in | rain mn in | humidity % | barometer mb |
| 20260507020018 | 0 | 0.0 | 0.0 | 0.00 | 0.00 | 0.00 | 1009.5 | ||
| 20260507014505 | 0 | 0.0 | 0.0 | 0.00 | 0.00 | 0.00 | 1009.5 | ||
| 20260507013035 | 0 | 0.0 | 0.0 | 0.00 | 0.00 | 0.00 | 1009.6 | ||
| 20260507011533 | 0 | 0.0 | 0.0 | 0.00 | 0.00 | 0.00 | 1009.8 | ||
| 20260507010030 | 0 | 0.0 | 0.0 | 0.00 | 0.00 | 0.00 | 1009.9 | ||
| 20260507004522 | 0 | 0.0 | 0.0 | 0.00 | 0.00 | 0.00 | 1010.0 | ||
| 20260507003103 | 0 | 0.0 | 0.0 | 0.00 | 0.00 | 0.00 | 1010.1 | ||
| 20260507001605 | 0 | 0.0 | 0.0 | 0.00 | 0.00 | 0.00 | 1010.2 | ||
| 20260507000056 | 0 | 0.0 | 0.0 | 0.00 | 0.00 | 0.00 | 1010.3 | ||
| 20260506234540 | 0 | 0.0 | 0.0 | 0.00 | 0.00 | 0.00 | 1010.4 | ||
| 20260506233047 | 0 | 0.0 | 0.0 | 0.00 | 0.00 | 0.00 | 1010.5 | ||
| 20260506231512 | 0 | 0.0 | 0.0 | 0.00 | 0.00 | 0.00 | 1010.5 | ||
| 20260506230012 | 0 | 0.0 | 0.0 | 0.00 | 0.00 | 0.00 | 1010.5 | ||
| 20260506224549 | 0 | 0.0 | 0.0 | 0.00 | 0.00 | 0.00 | 1010.6 | ||
| 20260506223002 | 0 | 0.0 | 0.0 | 0.00 | 0.00 | 0.00 | 1010.9 | ||
| 20260506221536 | 0 | 0.0 | 0.0 | 0.00 | 0.00 | 0.00 | 1011.1 | ||
| 20260506220038 | 0 | 0.0 | 0.0 | 0.00 | 0.00 | 0.00 | 1011.2 | ||
| 20260506214532 | 0 | 0.0 | 0.0 | 0.00 | 0.00 | 0.00 | 1011.2 | ||
| 20260506213035 | 0 | 0.0 | 0.0 | 0.00 | 0.00 | 0.00 | 1011.3 | ||
| 20260506211501 | 0 | 0.0 | 0.0 | 0.00 | 0.00 | 0.00 | 1011.3 | ||
| 20260506210049 | 0 | 0.0 | 0.0 | 0.00 | 0.00 | 0.00 | 1011.3 | ||
| 20260506204533 | 0 | 0.0 | 0.0 | 0.00 | 0.00 | 0.00 | 1011.3 | ||
| 20260506203017 | 0 | 0.0 | 0.0 | 0.00 | 0.00 | 0.00 | 1011.1 | ||
| 20260506201606 | 0 | 0.0 | 0.0 | 0.00 | 0.00 | 0.00 | 1011.1 | ||
| 20260506200033 | 0 | 0.0 | 0.0 | 0.00 | 0.00 | 0.00 | 1011.1 | ||
| 20260506194605 | 0 | 0.0 | 0.0 | 0.00 | 0.00 | 0.00 | 1010.9 | ||
| 20260506193022 | 0 | 338 | 9.6 | 0.0 | 0.00 | 0.00 | 0.00 | 81 | 1011.2 |
| 20260506191558 | 57 | 30 | 10.4 | 0.0 | 0.00 | 0.00 | 0.00 | 81 | 1011.1 |
| 20260506190006 | 57 | 335 | 8.7 | 0.0 | 0.00 | 0.00 | 0.00 | 82 | 1011.1 |
| 20260506184511 | 57 | 338 | 11.3 | 0.0 | 0.00 | 0.00 | 0.00 | 82 | 1011.0 |
| 20260506183106 | 58 | 346 | 8.7 | 0.0 | 0.00 | 0.00 | 0.00 | 81 | 1011.0 |
| 20260506181530 | 58 | 339 | 11.3 | 0.0 | 0.00 | 0.00 | 0.00 | 80 | 1011.1 |
| 20260506180045 | 57 | 24 | 10.4 | 0.0 | 0.00 | 0.00 | 0.00 | 80 | 1011.3 |
| 20260506174513 | 57 | 16 | 9.6 | 0.0 | 0.00 | 0.00 | 0.00 | 81 | 1011.4 |
| 20260506173002 | 57 | 347 | 9.6 | 0.0 | 0.00 | 0.00 | 0.00 | 83 | 1011.4 |
| 20260506171550 | 57 | 336 | 13.0 | 0.0 | 0.00 | 0.00 | 0.00 | 83 | 1011.4 |
| 20260506170004 | 57 | 344 | 13.0 | 0.0 | 0.00 | 0.00 | 0.00 | 82 | 1011.6 |
| 20260506164524 | 57 | 324 | 11.3 | 0.0 | 0.00 | 0.00 | 0.00 | 81 | 1011.7 |
| 20260506163029 | 58 | 341 | 13.0 | 0.0 | 0.00 | 0.00 | 0.00 | 81 | 1011.6 |
| 20260506161513 | 57 | 344 | 14.8 | 0.0 | 0.00 | 0.00 | 0.00 | 79 | 1011.6 |
| 20260506160007 | 57 | 331 | 14.8 | 0.0 | 0.00 | 0.00 | 0.00 | 81 | 1011.7 |
| 20260506154545 | 58 | 336 | 13.9 | 0.0 | 0.00 | 0.00 | 0.00 | 81 | 1011.8 |
| 20260506153025 | 58 | 334 | 15.6 | 0.0 | 0.00 | 0.00 | 0.00 | 81 | 1011.8 |
| 20260506151505 | 58 | 9 | 11.3 | 0.0 | 0.00 | 0.00 | 0.00 | 80 | 1011.9 |
| 20260506150015 | 58 | 329 | 10.4 | 0.0 | 0.00 | 0.00 | 0.00 | 79 | 1012.0 |
| 20260506144525 | 58 | 307 | 9.6 | 0.0 | 0.00 | 0.00 | 0.00 | 80 | 1012.1 |
| 20260506143003 | 58 | 23 | 10.4 | 0.0 | 0.00 | 0.00 | 0.00 | 80 | 1012.2 |
| 20260506141550 | 58 | 335 | 10.4 | 0.0 | 0.00 | 0.00 | 0.00 | 80 | 1012.2 |
| 20260506140059 | 58 | 336 | 9.6 | 0.0 | 0.00 | 0.00 | 0.00 | 80 | 1012.3 |
| 20260506134532 | 58 | 334 | 10.4 | 0.0 | 0.00 | 0.00 | 0.00 | 80 | 1012.5 |
| 20260506133015 | 58 | 327 | 9.6 | 0.0 | 0.00 | 0.00 | 0.00 | 80 | 1012.5 |
| 20260506131559 | 58 | 334 | 9.6 | 0.0 | 0.00 | 0.00 | 0.00 | 81 | 1012.6 |
| 20260506130057 | 58 | 342 | 8.7 | 0.0 | 0.00 | 0.00 | 0.00 | 81 | 1012.7 |
| 20260506124509 | 57 | 319 | 9.6 | 0.0 | 0.00 | 0.00 | 0.00 | 83 | 1012.7 |
| 20260506123106 | 57 | 333 | 6.1 | 0.0 | 0.00 | 0.00 | 0.00 | 83 | 1012.8 |
| 20260506121527 | 57 | 30 | 5.2 | 0.0 | 0.00 | 0.00 | 0.00 | 84 | 1012.9 |
| 20260506120106 | 57 | 347 | 6.1 | 0.0 | 0.00 | 0.00 | 0.00 | 84 | 1012.9 |
| 20260506114628 | 57 | 337 | 7.0 | 0.0 | 0.00 | 0.00 | 0.00 | 85 | 1013.1 |
| 20260506113030 | 56 | 9 | 6.1 | 0.0 | 0.00 | 0.00 | 0.00 | 86 | 1013.1 |
| 20260506111533 | 56 | 341 | 7.0 | 0.0 | 0.00 | 0.00 | 0.00 | 86 | 1013.2 |
| 20260506110053 | 56 | 13 | 7.0 | 0.0 | 0.00 | 0.00 | 0.00 | 85 | 1013.1 |
| 20260506104605 | 57 | 341 | 13.0 | 0.0 | 0.00 | 0.00 | 0.00 | 84 | 1013.1 |
| 20260506103056 | 58 | 333 | 8.7 | 0.0 | 0.00 | 0.00 | 0.00 | 83 | 1013.3 |
| 20260506101605 | 57 | 344 | 7.8 | 0.0 | 0.00 | 0.00 | 0.00 | 83 | 1013.2 |
| 20260506100020 | 57 | 341 | 7.8 | 0.0 | 0.00 | 0.00 | 0.00 | 83 | 1013.1 |
| 20260506094548 | 57 | 342 | 4.3 | 0.0 | 0.00 | 0.00 | 0.00 | 84 | 1013.1 |
| 20260506093037 | 57 | 319 | 5.2 | 0.0 | 0.00 | 0.00 | 0.00 | 85 | 1013.1 |
| 20260506091549 | 57 | 348 | 3.5 | 0.0 | 0.00 | 0.00 | 0.00 | 85 | 1013.0 |
| 20260506090004 | 57 | 348 | 3.5 | 0.0 | 0.00 | 0.00 | 0.00 | 86 | 1013.1 |
| 20260506084601 | 57 | 344 | 5.2 | 0.0 | 0.00 | 0.00 | 0.00 | 87 | 1013.1 |
| 20260506083037 | 57 | 11 | 3.5 | 0.0 | 0.00 | 0.00 | 0.00 | 88 | 1013.0 |
| 20260506081531 | 58 | 93 | 1.7 | 0.0 | 0.00 | 0.00 | 0.00 | 89 | 1013.0 |
| 20260506073023 | 0 | 0.0 | 0.0 | 0.00 | 0.00 | 0.00 | 1013.1 | ||
| 20260506071554 | 0 | 0.0 | 0.0 | 0.00 | 0.00 | 0.00 | 1012.9 | ||
| 20260506061604 | 0 | 0.0 | 0.0 | 0.00 | 0.00 | 0.00 | 1012.6 | ||
| 20260506050109 | 0 | 0.0 | 0.0 | 0.00 | 0.00 | 0.00 | 1012.3 | ||
| 20260506044605 | 0 | 0.0 | 0.0 | 0.00 | 0.00 | 0.00 | 1012.4 | ||
| 20260506043052 | 0 | 0.0 | 0.0 | 0.00 | 0.00 | 0.00 | 1012.3 | ||
| 20260506041610 | 0 | 0.0 | 0.0 | 0.00 | 0.00 | 0.00 | 1012.5 | ||
| 20260506040104 | 0 | 0.0 | 0.0 | 0.00 | 0.00 | 0.00 | 1012.6 | ||
| 20260506034500 | 0 | 0.0 | 0.0 | 0.00 | 0.00 | 0.00 | 1012.7 | ||
| 20260506033049 | 0 | 0.0 | 0.0 | 0.00 | 0.00 | 0.00 | 1012.8 | ||
| 20260506031603 | 0 | 0.0 | 0.0 | 0.00 | 0.00 | 0.00 | 1012.9 | ||
| 20260506030007 | 0 | 0.0 | 0.0 | 0.00 | 0.00 | 0.00 | 1012.8 | ||
| 20260506024504 | 0 | 0.0 | 0.0 | 0.00 | 0.00 | 0.00 | 1012.9 | ||
| 20260506023020 | 0 | 0.0 | 0.0 | 0.00 | 0.00 | 0.00 | 1012.9 | ||
| 20260506021558 | 0 | 0.0 | 0.0 | 0.00 | 0.00 | 0.00 | 1013.0 | ||
| 20260506020109 | 0 | 0.0 | 0.0 | 0.00 | 0.00 | 0.00 | 1013.1 |